Allentown, PA

9:52 AM EDT on October 18, 2019 (GMT -0400)
Allentown

Weather History for KXLL - May, 2019

Change the Weather History Date:

Thursday, May 9, 2019

  Actual Average (WUND) Record (WUND)
Temperature  
Mean Temperature 56 °F -  
Max Temperature 60 °F - - (-1)
Min Temperature 53 °F - - (-1)
Degree Days  
Heating Degree Days 8    
Growing Degree Days 6 (Base 50)    
Moisture  
Dew Point 51 °F    
Average Humidity 83    
Maximum Humidity 94    
Minimum Humidity 68    
Precipitation  
Precipitation 0.00 in - - ()
Sea Level Pressure  
Sea Level Pressure 30.25 in    
Wind  
Wind Speed 5 mph (ENE)    
Max Wind Speed 12 mph    
Max Gust Speed 18 mph    
Visibility 10 miles    
Events Rain    
Averages and records for this station are not official NWS values.
T = Trace of Precipitation, MM = Missing Value Source: NWS Daily Summary

Daily Weather History Graph

Daily Weather History Graph

Search for Another Location

Airport or City:

Astronomy

May. 09, 2019 Rise Set
Actual Time 5:51 AM EDT 8:05 PM EDT
Civil Twilight 5:21 AM EDT 8:36 PM EDT
Nautical Twilight 4:43 AM EDT 9:13 PM EDT
Astronomical Twilight 4:02 AM EDT 9:55 PM EDT
Moon 9:44 AM EDT (5/9) 12:03 AM EDT (5/9)
Length of Visible Light 15h 14m
Length of Day
14h 14m
Waxing Crescent, 24% of the Moon is Illuminated
May 9
Waxing Crescent
May 11
First Quarter
May 18
Full
May 26
Last Quarter
Jun 3
New

Hourly Weather History & Observations

Time (EDT) Temp. Dew Point Humidity Pressure Visibility Wind Dir Wind Speed Gust Speed Precip Events Conditions
12:15 AM 59.0 °F 51.8 °F 77% 30.26 in 10.0 mi West 3.5 mph - N/A   Clear
12:35 AM 60.8 °F 50.0 °F 68% 30.26 in 10.0 mi Calm Calm - N/A   Clear
12:55 AM 59.0 °F 50.0 °F 72% 30.26 in 10.0 mi Calm Calm - N/A   Clear
1:15 AM 59.0 °F 50.0 °F 72% 30.26 in 10.0 mi Calm Calm - N/A   Clear
1:35 AM 59.0 °F 50.0 °F 72% 30.26 in 10.0 mi NE 3.5 mph - N/A   Scattered Clouds
1:55 AM 57.2 °F 51.8 °F 82% 30.26 in 10.0 mi NE 5.8 mph - N/A   Mostly Cloudy
2:15 AM 55.4 °F 51.8 °F 88% 30.27 in 10.0 mi NE 3.5 mph - N/A   Mostly Cloudy
2:35 AM 57.2 °F 51.8 °F 82% 30.27 in 10.0 mi NNE 3.5 mph - N/A   Mostly Cloudy
2:55 AM 55.4 °F 51.8 °F 88% 30.27 in 10.0 mi Calm Calm - N/A   Mostly Cloudy
3:15 AM 55.4 °F 51.8 °F 88% 30.26 in 10.0 mi NE 3.5 mph - N/A   Overcast
3:35 AM 55.4 °F 51.8 °F 88% 30.26 in 10.0 mi Calm Calm - N/A   Overcast
3:55 AM 55.4 °F 51.8 °F 88% 30.26 in 10.0 mi East 9.2 mph - N/A   Overcast
4:15 AM 55.4 °F 51.8 °F 88% 30.26 in 10.0 mi East 8.1 mph - N/A   Overcast
4:35 AM 55.4 °F 51.8 °F 88% 30.26 in 10.0 mi ENE 6.9 mph - N/A   Overcast
4:55 AM 55.4 °F 51.8 °F 88% 30.26 in 10.0 mi East 10.4 mph - N/A   Overcast
5:15 AM 55.4 °F 51.8 °F 88% 30.26 in 10.0 mi East 9.2 mph - N/A   Overcast
5:35 AM 55.4 °F 51.8 °F 88% 30.27 in 10.0 mi ENE 6.9 mph - N/A   Overcast
5:55 AM 55.4 °F 51.8 °F 88% 30.27 in 10.0 mi East 10.4 mph - N/A   Overcast
6:15 AM 55.4 °F 51.8 °F 88% 30.28 in 10.0 mi East 10.4 mph - N/A   Overcast
6:55 AM 55.4 °F 51.8 °F 88% 30.30 in 10.0 mi East 4.6 mph - N/A   Overcast
7:15 AM 55.4 °F 51.8 °F 88% 30.30 in 10.0 mi ENE 4.6 mph - N/A   Overcast
7:35 AM 55.4 °F 51.8 °F 88% 30.30 in 10.0 mi East 8.1 mph - N/A   Overcast
7:55 AM 55.4 °F 51.8 °F 88% 30.30 in 10.0 mi ENE 6.9 mph - N/A   Light Drizzle
8:15 AM 55.4 °F 53.6 °F 94% 30.29 in 10.0 mi East 5.8 mph - N/A   Overcast
8:35 AM 55.4 °F 51.8 °F 88% 30.29 in 10.0 mi ENE 6.9 mph - N/A   Overcast
8:55 AM 57.2 °F 51.8 °F 82% 30.29 in 10.0 mi ENE 6.9 mph - N/A   Overcast
9:15 AM 57.2 °F 51.8 °F 82% 30.29 in 10.0 mi East 6.9 mph - N/A   Overcast
9:35 AM 57.2 °F 53.6 °F 88% 30.29 in 10.0 mi East 10.4 mph - N/A   Overcast
9:55 AM 55.4 °F 51.8 °F 88% 30.29 in 10.0 mi East 10.4 mph - N/A   Overcast
10:15 AM 55.4 °F 51.8 °F 88% 30.28 in 10.0 mi ENE 10.4 mph - N/A   Overcast
10:35 AM 55.4 °F 51.8 °F 88% 30.28 in 10.0 mi East 9.2 mph - N/A   Overcast
10:55 AM 55.4 °F 50.0 °F 82% 30.27 in 10.0 mi ESE 8.1 mph - N/A   Overcast
11:15 AM 55.4 °F 50.0 °F 82% 30.27 in 10.0 mi East 9.2 mph 16.1 mph N/A   Overcast
11:35 AM 55.4 °F 50.0 °F 82% 30.27 in 10.0 mi East 6.9 mph - N/A   Overcast
11:55 AM 55.4 °F 48.2 °F 77% 30.27 in 10.0 mi ENE 10.4 mph 16.1 mph N/A   Overcast
12:15 PM 55.4 °F 48.2 °F 77% 30.27 in 10.0 mi ENE 9.2 mph - N/A   Overcast
12:35 PM 55.4 °F 50.0 °F 82% 30.27 in 10.0 mi ENE 4.6 mph - N/A Rain Light Rain
12:55 PM 55.4 °F 50.0 °F 82% 30.27 in 10.0 mi ESE 6.9 mph - N/A Rain Light Rain
1:15 PM 55.4 °F 50.0 °F 82% 30.27 in 10.0 mi East 4.6 mph - N/A   Overcast
1:35 PM 55.4 °F 50.0 °F 82% 30.27 in 10.0 mi SE 8.1 mph - N/A   Overcast
1:55 PM 57.2 °F 50.0 °F 77% 30.26 in 10.0 mi East 8.1 mph 17.3 mph N/A   Overcast
2:15 PM 55.4 °F 50.0 °F 82% 30.26 in 10.0 mi ESE 4.6 mph - N/A   Overcast
2:35 PM 57.2 °F 50.0 °F 77% 30.26 in 10.0 mi ESE 10.4 mph - N/A   Overcast
2:55 PM 55.4 °F 50.0 °F 82% 30.25 in 10.0 mi ESE 6.9 mph - N/A   Overcast
3:15 PM 57.2 °F 50.0 °F 77% 30.24 in 10.0 mi ESE 3.5 mph - N/A   Overcast
3:35 PM 57.2 °F 50.0 °F 77% 30.24 in 10.0 mi ESE 11.5 mph 16.1 mph N/A   Overcast
4:55 PM 57.2 °F 50.0 °F 77% 30.23 in 10.0 mi ESE 9.2 mph - N/A   Overcast
5:15 PM 55.4 °F 50.0 °F 82% 30.22 in 10.0 mi East 8.1 mph - N/A   Overcast
5:35 PM 55.4 °F 50.0 °F 82% 30.22 in 10.0 mi East 6.9 mph 18.4 mph N/A   Overcast
5:55 PM 55.4 °F 50.0 °F 82% 30.22 in 10.0 mi East 6.9 mph - N/A   Overcast
6:15 PM 55.4 °F 50.0 °F 82% 30.21 in 10.0 mi East 6.9 mph - N/A   Overcast
6:35 PM 55.4 °F 48.2 °F 77% 30.21 in 10.0 mi East 10.4 mph - N/A   Overcast
6:55 PM 55.4 °F 48.2 °F 77% 30.21 in 10.0 mi ENE 5.8 mph - N/A   Overcast
7:15 PM 55.4 °F 48.2 °F 77% 30.20 in 10.0 mi East 8.1 mph 17.3 mph N/A   Overcast
7:35 PM 53.6 °F 48.2 °F 82% 30.21 in 10.0 mi ENE 5.8 mph - N/A   Overcast
7:55 PM 53.6 °F 48.2 °F 82% 30.21 in 10.0 mi East 8.1 mph - N/A   Overcast
8:15 PM 53.6 °F 48.2 °F 82% 30.20 in 10.0 mi East 6.9 mph - N/A   Overcast
8:35 PM 53.6 °F 48.2 °F 82% 30.20 in 10.0 mi NE 6.9 mph - N/A   Overcast
8:55 PM 53.6 °F 50.0 °F 88% 30.20 in 10.0 mi East 4.6 mph - N/A   Overcast
9:15 PM 53.6 °F 50.0 °F 88% 30.20 in 10.0 mi Calm Calm - N/A   Overcast
9:35 PM 53.6 °F 50.0 °F 88% 30.20 in 10.0 mi NNE 4.6 mph - N/A   Overcast
9:55 PM 53.6 °F 50.0 °F 88% 30.20 in 10.0 mi NE 8.1 mph - N/A   Overcast
10:15 PM 53.6 °F 50.0 °F 88% 30.20 in 10.0 mi NE 4.6 mph - N/A   Overcast
10:35 PM 53.6 °F 50.0 °F 88% 30.20 in 10.0 mi East 6.9 mph - N/A   Overcast
10:55 PM 53.6 °F 50.0 °F 88% 30.19 in 10.0 mi ENE 4.6 mph - N/A   Overcast
11:15 PM 53.6 °F 50.0 °F 88% 30.19 in 10.0 mi ENE 3.5 mph - N/A   Overcast
11:35 PM 53.6 °F 50.0 °F 88% 30.19 in 10.0 mi ENE 5.8 mph - N/A   Overcast
11:55 PM 53.6 °F 50.0 °F 88% 30.19 in 10.0 mi ENE 4.6 mph - N/A   Overcast